Location: Calvatone
(45.1167°N, 10.4333°E)
Time: 16:46:58
(UTC+00:00)

Cosmos 2082 - Pass Details

Date: 28 January 2023
Orbit: 834 x 854 km, 71.0° (Epoch: 31 March)

Event Time Altitude Azimuth Distance (km) Brightness Sun altitude
Rises 17:15:36 0° 334° (NNW) 3,394 7.0 -10.1°
Reaches altitude 10° 17:18:03 10° 335° (NNW) 2,455 6.2 -10.5°
Maximum altitude 17:23:42 86° 64° (ENE) 843 3.7 -11.4°
Drops below altitude 10° 17:29:19 10° 154° (SSE) 2,439 6.0 -12.4°
Sets 17:31:44 0° 155° (SSE) 3,370 6.7 -12.8°
